C/2020 U5 ( PanSTARRS )

Japanese version
Home page
Updated on January 29, 2023

---------------------------------------------------------------------

* Profile

Discovery Date October 22, 2020
Magnitude 20.4 mag
Discoverer Pan-STARRS 1 telescope (Haleakala)

* Pictures

* Orbital Elements

Epoch 2022 Aug. 9.0 TT = JDT 2459800.5
T 2022 Apr. 27.91620 TT                                 Rudenko
q   3.7559653            (2000.0)            P               Q
z  +0.0002248      Peri.   75.42223     +0.04192050     +0.31874217
 +/-0.0000006      Node   107.33330     -0.12796248     -0.93822909
e   0.9991555      Incl.   97.26987     +0.99089267     -0.13464622
From 778 observations 2020 Sept. 25-2022 Sept. 4, mean residual 0".5.

* Finding Charts

* Magnitudes Graph

        m1 = 8.0 + 5 log d + 10.0 log r(t + 120)

---------------------------------------------------------------------

The orbital elements are published on M.P.E.C. 2022-R139.
The charts are made with StellaNavigator Ver.10 (AstroArts).
The magnitudes graphs are made with Comet for Windows.

---------------------------------------------------------------------

Copyright(C) Seiichi Yoshida (comet@aerith.net). All rights reserved.